Location: Katherine
(14.4670°S, 132.2670°E)
Time: 20:25:01
(UTC+09:30)

ISS - Visible Passes

Search period start: 26 September 2017 00:00
Search period end: 06 October 2017 00:00
Orbit: 401 x 407 km, 51.6° (Epoch: 26 September)

Date Brightness Start Highest point End Pass type
(mag) Time Alt. Az. Time Alt. Az. Time Alt. Az.
26 Sep -0.9 05:22:39 10° NNE 05:24:43 16° NE 05:26:47 10° E visible
27 Sep -3.4 06:05:29 10° NW 06:08:38 45° SW 06:11:49 10° SSE visible
28 Sep -3.4 05:14:57 30° NNW 05:16:20 59° NE 05:19:34 10° SE visible
29 Sep -0.7 04:25:40 15° E 04:25:40 15° E 04:26:38 10° ESE visible
29 Sep -1.7 05:58:37 10° W 06:00:24 14° SW 06:02:11 10° SSW visible
30 Sep -2.4 05:08:54 27° SSW 05:08:54 27° SSW 05:10:58 10° SSE visible
